Flag for Canada Weather past 2 weeks in Stephenville, Newfoundland and Labrador, Canada

Now
64 °F

Partly sunny.


Feels Like: 64 °F
Forecast: 55 / 67 °F
Wind: 5 mph from Northwest

Location: Stephenville

Current Time: Aug 23, 2014 at 1:35:22 PM

Latest Report: Aug 23, 2014 at 12:30 PM


Visibility: 15 mi

Pressure: 30.08 "Hg

Humidity: 60%

Dew point: 50 °F

Location of StephenvilleLocation

Historic Weather in Stephenville — Graph

°F

Stephenville temperature yesterday

Maximum temperature yesterday: 66 °F (at 6:30 PM)
Minimum temperature yesterday: 57 °F (at 4:30 AM)
Average temperature yesterday: 62 °F

Past Weeks' High & Low Weather Summary

 TemperatureHumidityPressure
High79 °F (Aug 13, 4:30 PM)88% (Aug 8, 11:30 PM)30.22 "Hg (Aug 8, 11:30 PM)
Low52 °F (Aug 23, 6:30 AM)45% (Aug 15, 4:30 PM)29.52 "Hg (Aug 19, 10:30 AM)
Average65 °F72%29.96 "Hg
* Reported Aug 8 11:30 AM — Aug 23 11:30 AM, Stephenville, Weather by CustomWeather, © 2014

Note: Actual official high and low records may vary slightly from our data, if they occured in-between our weather recording intervals... More about our weather records

Advertising

Stephenville weather history for previous 24 hours

 ConditionsComfort  
Time TempWeatherWind HumidityBarometerVisibility
11:30 AM
Aug 23
61 °FPartly sunny.8 mph68%30.09 "Hg15 mi
10:30 AM61 °FScattered clouds.No wind68%30.09 "Hg15 mi
9:30 AM59 °FPartly sunny.No wind72%30.10 "Hg15 mi
8:30 AM55 °FPassing clouds.No wind82%30.10 "Hg15 mi
7:30 AM52 °FPartly sunny.5 mph82%30.10 "Hg15 mi
6:30 AM52 °FPassing clouds.6 mph82%30.09 "Hg15 mi
5:30 AM54 °FPassing clouds.6 mph82%30.08 "Hg15 mi
4:30 AM55 °FPassing clouds.6 mph82%30.09 "Hg15 mi
3:30 AM57 °FMostly cloudy.No wind77%30.09 "Hg15 mi
2:30 AM59 °FMostly cloudy.6 mph72%30.09 "Hg15 mi
1:30 AM59 °FMostly cloudy.12 mph77%30.09 "Hg15 mi
12:30 AM59 °FMostly cloudy.12 mph77%30.10 "Hg15 mi
11:30 PM
Aug 22
61 °FMostly cloudy.6 mph72%30.10 "Hg15 mi
10:30 PM61 °FPassing clouds.6 mph72%30.11 "Hg15 mi
9:30 PM61 °FPassing clouds.8 mph72%30.10 "Hg15 mi
8:30 PM63 °FPartly sunny.6 mph68%30.09 "Hg15 mi
7:30 PM64 °FPartly sunny.6 mph64%30.08 "Hg15 mi
6:30 PM66 °FPartly sunny.12 mph60%30.06 "Hg15 mi
5:30 PM64 °FSprinkles. Partly sunny.No wind73%30.07 "Hg15 mi
4:30 PM64 °FSprinkles. Partly sunny.6 mph78%30.07 "Hg15 mi
3:30 PM63 °FSprinkles. Partly sunny.6 mph83%30.08 "Hg15 mi
2:30 PM64 °FSprinkles. Partly sunny.7 mph78%30.09 "Hg15 mi
1:30 PM64 °FPartly sunny.6 mph78%30.10 "Hg15 mi
Weather by CustomWeather, © 2014

See weather overviewHow to use our weather pages